Location: Newark
(37.4167°N, 6.2889°W)
Time: 11:06:31
(UTC+00:00)

N. Korean satellite - Visible Passes

Search period start: 23 October 2019 00:00
Search period end: 02 November 2019 00:00
Orbit: 455 x 508 km, 97.2° (Epoch: 22 October)

Date Brightness Start Highest point End Pass type
(mag) Time Alt. Az. Time Alt. Az. Time Alt. Az.
23 Oct 10.6 05:11:57 10° E 05:12:17 10° E 05:12:37 10° E visible
24 Oct 9.8 18:24:49 10° SW 18:27:13 18° W 18:29:39 10° NW visible
25 Oct 8.5 05:51:52 10° NNE 05:55:17 36° E 05:58:42 10° SSE visible
25 Oct 8.2 17:58:34 10° S 18:01:48 39° W 18:05:05 10° NNW visible
26 Oct 9.9 05:27:22 10° NE 05:29:52 17° E 05:32:22 10° SE visible
27 Oct 10.5 18:44:03 10° WSW 18:44:46 10° W 18:45:30 10° W visible
28 Oct 7.2 06:09:05 10° NNE 06:12:45 65° E 06:16:26 10° S visible
28 Oct 9.4 18:16:30 10° SSW 18:19:16 23° W 18:22:05 10° NW visible
29 Oct 9.0 05:44:08 10° NE 05:47:23 29° E 05:50:38 10° SSE visible
30 Oct 10.2 05:19:55 10° ENE 05:21:56 14° E 05:23:57 10° SE visible
31 Oct 10.1 18:34:58 10° SW 18:36:46 14° W 18:38:36 10° WNW visible
01 Nov 7.7 06:01:13 10° NNE 06:04:50 50° E 06:08:27 10° S visible
01 Nov 8.9 18:08:14 10° SSW 18:11:17 29° W 18:14:24 10° NW visible
